TimeEST,TemperatureF,Dew PointF,Humidity,Sea Level PressureIn,VisibilityMPH,Wind Direction,Wind SpeedMPH,Gust SpeedMPH,PrecipitationIn,Events,Conditions,WindDirDegrees,DateUTC
12:53 AM,73.0,73.0,100,30.08,0.2,WSW,4.6,-,N/A,Fog,Fog,240,2012-12-13 05:53:00
1:53 AM,73.0,73.0,100,30.07,0.5,SW,4.6,-,N/A,Fog,Fog,230,2012-12-13 06:53:00
2:16 AM,71.6,71.6,100,30.07,2.0,WNW,8.1,-,0.01,Rain,Light Rain,300,2012-12-13 07:16:00
2:23 AM,71.6,71.6,100,30.07,5.0,NW,11.5,-,0.01,Rain,Light Rain,310,2012-12-13 07:23:00
2:48 AM,71.6,69.8,94,30.07,10.0,NNW,5.8,-,0.01,,Overcast,330,2012-12-13 07:48:00
2:53 AM,71.1,70.0,96,30.07,9.0,NNW,6.9,-,0.01,,Overcast,330,2012-12-13 07:53:00
3:42 AM,69.8,68.0,94,30.07,10.0,NNW,12.7,-,N/A,,Overcast,330,2012-12-13 08:42:00
3:49 AM,69.8,68.0,94,30.07,10.0,NNW,11.5,-,N/A,,Overcast,330,2012-12-13 08:49:00
3:53 AM,69.1,68.0,96,30.07,10.0,North,13.8,-,N/A,,Overcast,350,2012-12-13 08:53:00
4:53 AM,68.0,66.0,93,30.09,10.0,North,8.1,-,N/A,,Overcast,350,2012-12-13 09:53:00
5:53 AM,66.9,64.9,93,30.10,10.0,North,10.4,-,N/A,,Overcast,350,2012-12-13 10:53:00
6:53 AM,66.9,64.9,93,30.12,10.0,NNW,9.2,-,N/A,,Overcast,340,2012-12-13 11:53:00
7:53 AM,66.9,64.0,90,30.14,10.0,North,11.5,-,N/A,,Overcast,350,2012-12-13 12:53:00
8:00 AM,66.2,62.6,88,30.14,10.0,North,16.1,20.7,N/A,,Overcast,360,2012-12-13 13:00:00
8:41 AM,66.2,62.6,88,30.16,10.0,North,15.0,21.9,N/A,,Overcast,350,2012-12-13 13:41:00
8:53 AM,66.0,62.1,87,30.17,7.0,North,12.7,20.7,N/A,,Overcast,350,2012-12-13 13:53:00
9:39 AM,68.0,60.8,78,30.17,10.0,NNE,12.7,-,N/A,,Mostly Cloudy,20,2012-12-13 14:39:00
9:48 AM,69.8,60.8,73,30.17,10.0,North,15.0,23.0,N/A,,Scattered Clouds,10,2012-12-13 14:48:00
9:53 AM,69.1,60.1,73,30.17,10.0,NNE,12.7,-,N/A,,Mostly Cloudy,20,2012-12-13 14:53:00
10:00 AM,69.8,60.8,73,30.17,10.0,North,15.0,-,N/A,,Mostly Cloudy,10,2012-12-13 15:00:00
10:53 AM,70.0,60.1,71,30.18,10.0,North,11.5,-,N/A,,Mostly Cloudy,350,2012-12-13 15:53:00
11:00 AM,71.6,60.8,69,30.18,10.0,North,10.4,-,N/A,,Mostly Cloudy,10,2012-12-13 16:00:00
11:53 AM,71.1,59.0,66,30.17,10.0,North,12.7,-,N/A,,Mostly Cloudy,10,2012-12-13 16:53:00
12:53 PM,72.0,59.0,64,30.16,10.0,NNE,12.7,-,N/A,,Scattered Clouds,30,2012-12-13 17:53:00
1:28 PM,73.4,59.0,61,30.14,10.0,NNE,10.4,-,N/A,,Mostly Cloudy,20,2012-12-13 18:28:00
1:53 PM,73.9,57.9,57,30.13,10.0,NNE,15.0,-,N/A,,Scattered Clouds,30,2012-12-13 18:53:00
2:53 PM,72.0,57.0,59,30.12,10.0,NNE,10.4,-,N/A,,Partly Cloudy,30,2012-12-13 19:53:00
3:53 PM,71.1,57.9,63,30.12,10.0,NE,13.8,19.6,N/A,,Scattered Clouds,40,2012-12-13 20:53:00
4:53 PM,69.1,57.0,65,30.12,10.0,NE,10.4,-,N/A,,Partly Cloudy,50,2012-12-13 21:53:00
8:23 PM,62.6,57.2,82,30.17,10.0,NE,12.7,-,N/A,,Mostly Cloudy,40,2012-12-14 01:23:00
8:40 PM,60.8,57.2,88,30.18,10.0,NE,10.4,-,N/A,,Scattered Clouds,50,2012-12-14 01:40:00
8:53 PM,61.0,57.0,87,30.19,10.0,NE,10.4,-,N/A,,Scattered Clouds,50,2012-12-14 01:53:00
9:13 PM,60.8,57.2,88,30.19,10.0,NE,8.1,-,N/A,,Mostly Cloudy,40,2012-12-14 02:13:00
9:51 PM,62.6,55.4,77,30.19,10.0,NE,9.2,-,N/A,,Overcast,40,2012-12-14 02:51:00
9:53 PM,62.1,55.9,80,30.19,10.0,NE,10.4,-,N/A,,Overcast,40,2012-12-14 02:53:00
10:22 PM,62.6,55.4,77,30.19,10.0,NE,10.4,-,N/A,,Overcast,40,2012-12-14 03:22:00
10:53 PM,61.0,55.9,83,30.19,10.0,NNE,10.4,-,N/A,,Overcast,20,2012-12-14 03:53:00
11:53 PM,59.0,55.0,87,30.18,10.0,NNE,9.2,-,N/A,,Mostly Cloudy,30,2012-12-14 04:53:00